Marshfield, WI

2:34 PM CST on November 20, 2019 (GMT -0600)
Marshfield Municipal

Weather History for KMFI - September, 2019

Change the Weather History Date:

Monday, September 23, 2019

  Actual Average Record
Temperature  
Mean Temperature 62 °F -  
Max Temperature 72 °F 62 °F 92 °F (1937)
Min Temperature 53 °F 40 °F 23 °F (1974)
Degree Days  
Heating Degree Days 2    
Growing Degree Days 12 (Base 50)    
Moisture  
Dew Point 52 °F    
Average Humidity 80    
Maximum Humidity 96    
Minimum Humidity 47    
Precipitation  
Precipitation 0.00 in - - ()
Sea Level Pressure  
Sea Level Pressure 29.94 in    
Wind  
Wind Speed 8 mph (West)    
Max Wind Speed 14 mph    
Max Gust Speed 21 mph    
Visibility 9 miles    
Events      
Averages and records for this station are not official NWS values.
T = Trace of Precipitation, MM = Missing Value Source: NWS Daily Summary

Daily Weather History Graph

Daily Weather History Graph

Search for Another Location

Airport or City:

Astronomy

Sep. 23, 2019 Rise Set
Actual Time 6:48 AM CDT 6:56 PM CDT
Civil Twilight 6:19 AM CDT 7:25 PM CDT
Nautical Twilight 5:45 AM CDT 7:59 PM CDT
Astronomical Twilight 5:10 AM CDT 8:34 PM CDT
Moon 12:16 AM CDT (9/23) 4:05 PM CDT (9/23)
Length of Visible Light 13h 06m
Length of Day
12h 07m
Waning Crescent, 33% of the Moon is Illuminated
Sep 23
Waning Crescent
Sep 28
New
Oct 5
First Quarter
Oct 13
Full
Oct 21
Last Quarter

Hourly Weather History & Observations

Time (CDT) Temp. Dew Point Humidity Pressure Visibility Wind Dir Wind Speed Gust Speed Precip Events Conditions
12:08 AM 55.9 °F 54.0 °F 93% 29.88 in 10.0 mi WNW 9.2 mph - N/A   Overcast
12:17 AM 55.9 °F 53.1 °F 90% 29.88 in 10.0 mi WNW 8.1 mph - N/A   Overcast
1:06 AM 55.9 °F 53.1 °F 90% 29.88 in 10.0 mi NW 8.1 mph - N/A   Overcast
1:54 AM 54.0 °F 52.0 °F 93% 29.89 in 10.0 mi WNW 6.9 mph - N/A   Clear
2:07 AM 54.0 °F 52.0 °F 93% 29.90 in 10.0 mi West 5.8 mph - N/A   Scattered Clouds
2:33 AM 53.1 °F 52.0 °F 96% 29.90 in 10.0 mi West 5.8 mph - N/A   Mostly Cloudy
2:44 AM 54.0 °F 52.0 °F 93% 29.90 in 10.0 mi West 6.9 mph - N/A   Mostly Cloudy
2:54 AM 54.0 °F 52.0 °F 93% 29.90 in 10.0 mi West 6.9 mph - N/A   Overcast
3:16 AM 54.0 °F 52.0 °F 93% 29.90 in 10.0 mi West 8.1 mph - N/A   Overcast
3:54 AM 54.0 °F 52.0 °F 93% 29.91 in 8.0 mi West 9.2 mph - N/A   Overcast
4:14 AM 54.0 °F 52.0 °F 93% 29.92 in 7.0 mi West 11.5 mph - N/A   Overcast
4:54 AM 54.0 °F 52.0 °F 93% 29.92 in 7.0 mi WNW 9.2 mph - N/A   Overcast
5:54 AM 53.1 °F 51.1 °F 93% 29.93 in 7.0 mi WNW 5.8 mph - N/A   Mostly Cloudy
6:28 AM 53.1 °F 52.0 °F 96% 29.94 in 6.0 mi West 5.8 mph - N/A   Overcast
6:54 AM 53.1 °F 52.0 °F 96% 29.95 in 5.0 mi West 5.8 mph - N/A   Overcast
7:54 AM 53.1 °F 52.0 °F 96% 29.96 in 5.0 mi WNW 6.9 mph - N/A   Scattered Clouds
8:54 AM 57.0 °F 53.1 °F 87% 29.97 in 10.0 mi WNW 11.5 mph - N/A   Clear
9:54 AM 60.1 °F 54.0 °F 80% 29.99 in 10.0 mi NW 9.2 mph - N/A   Clear
10:54 AM 63.0 °F 54.0 °F 72% 29.99 in 10.0 mi West 6.9 mph - N/A   Clear
11:54 AM 66.0 °F 54.0 °F 65% 29.99 in 10.0 mi WNW 9.2 mph - N/A   Clear
12:54 PM 69.1 °F 53.1 °F 57% 29.99 in 10.0 mi West 11.5 mph - N/A   Clear
2:54 PM 72.0 °F 51.1 °F 48% 29.96 in 10.0 mi WNW 11.5 mph 20.7 mph N/A   Partly Cloudy
3:54 PM 72.0 °F 51.1 °F 48% 29.95 in 10.0 mi WNW 12.7 mph 19.6 mph N/A   Scattered Clouds
4:54 PM 71.1 °F 50.0 °F 47% 29.95 in 10.0 mi West 13.8 mph 20.7 mph N/A   Partly Cloudy
5:54 PM 68.0 °F 50.0 °F 52% 29.95 in 10.0 mi West 8.1 mph - N/A   Clear
6:54 PM 63.0 °F 50.0 °F 63% 29.96 in 10.0 mi West 5.8 mph - N/A   Clear
7:54 PM 59.0 °F 50.0 °F 72% 29.97 in 10.0 mi WSW 4.6 mph - N/A   Clear
8:54 PM 57.9 °F 48.9 °F 72% 29.98 in 10.0 mi SW 4.6 mph - N/A   Clear
9:54 PM 57.0 °F 50.0 °F 77% 29.98 in 10.0 mi WSW 3.5 mph - N/A   Clear
10:54 PM 55.9 °F 50.0 °F 80% 29.97 in 10.0 mi Calm Calm - N/A   Clear